TimeEDT,TemperatureF,Dew PointF,Humidity,Sea Level PressureIn,VisibilityMPH,Wind Direction,Wind SpeedMPH,Gust SpeedMPH,PrecipitationIn,Events,Conditions,WindDirDegrees,DateUTC
12:18 AM,39.9,33.1,77,29.74,10.0,SSE,12.7,23.0,N/A,,Overcast,150,2014-04-05 04:18:00
12:35 AM,39.9,32.0,73,29.73,10.0,South,13.8,-,N/A,,Overcast,170,2014-04-05 04:35:00
12:54 AM,39.0,32.0,76,29.73,10.0,South,12.7,-,N/A,,Overcast,170,2014-04-05 04:54:00
1:54 AM,37.9,32.0,79,29.71,10.0,South,15.0,24.2,0.00,,Overcast,180,2014-04-05 05:54:00
2:54 AM,37.9,32.0,79,29.69,10.0,SSE,11.5,-,N/A,,Overcast,160,2014-04-05 06:54:00
3:25 AM,37.9,33.1,83,29.68,10.0,SSE,5.8,-,N/A,,Overcast,160,2014-04-05 07:25:00
3:54 AM,37.9,32.0,79,29.69,10.0,South,9.2,-,N/A,,Overcast,180,2014-04-05 07:54:00
4:54 AM,37.9,33.1,83,29.69,10.0,South,6.9,-,N/A,,Overcast,170,2014-04-05 08:54:00
5:54 AM,37.0,34.0,89,29.70,10.0,South,5.8,-,0.00,,Overcast,170,2014-04-05 09:54:00
6:02 AM,37.0,34.0,89,29.69,10.0,SSE,8.1,-,0.00,Rain,Light Rain,160,2014-04-05 10:02:00
6:28 AM,37.0,34.0,89,29.68,6.0,SSE,9.2,-,0.00,,Overcast,150,2014-04-05 10:28:00
6:38 AM,37.0,34.0,89,29.69,6.0,SSE,8.1,-,0.00,,Overcast,150,2014-04-05 10:38:00
6:54 AM,37.9,34.0,86,29.70,10.0,SSE,6.9,-,0.00,,Overcast,160,2014-04-05 10:54:00
7:13 AM,37.9,34.0,86,29.70,10.0,South,8.1,-,0.00,Rain,Light Rain,190,2014-04-05 11:13:00
7:54 AM,37.0,35.1,93,29.71,10.0,SSE,3.5,-,0.00,,Overcast,160,2014-04-05 11:54:00
8:09 AM,37.9,35.1,89,29.70,10.0,SE,3.5,-,N/A,,Overcast,130,2014-04-05 12:09:00
8:29 AM,37.9,35.1,89,29.70,10.0,SSE,3.5,-,N/A,,Overcast,160,2014-04-05 12:29:00
8:39 AM,37.9,34.0,86,29.70,10.0,South,6.9,-,N/A,,Overcast,170,2014-04-05 12:39:00
8:54 AM,39.0,35.1,86,29.71,10.0,South,6.9,-,N/A,,Overcast,170,2014-04-05 12:54:00
9:14 AM,39.0,35.1,86,29.70,10.0,South,8.1,-,N/A,,Overcast,190,2014-04-05 13:14:00
9:54 AM,39.9,35.1,83,29.71,10.0,SSW,9.2,-,N/A,,Overcast,210,2014-04-05 13:54:00
10:33 AM,41.0,36.0,82,29.70,10.0,SSW,9.2,-,N/A,,Overcast,210,2014-04-05 14:33:00
10:41 AM,41.0,36.0,82,29.70,10.0,SSW,10.4,-,N/A,,Overcast,210,2014-04-05 14:41:00
10:54 AM,42.1,36.0,79,29.70,10.0,SSW,9.2,-,N/A,,Overcast,200,2014-04-05 14:54:00
11:54 AM,43.0,35.1,74,29.70,10.0,SSW,10.4,-,N/A,,Overcast,210,2014-04-05 15:54:00
12:54 PM,44.1,28.9,55,29.70,10.0,West,10.4,-,N/A,,Overcast,260,2014-04-05 16:54:00
1:54 PM,43.0,25.0,49,29.70,10.0,WSW,17.3,26.5,N/A,,Overcast,250,2014-04-05 17:54:00
2:54 PM,44.1,23.0,43,29.71,10.0,WSW,15.0,23.0,N/A,,Overcast,250,2014-04-05 18:54:00
3:54 PM,42.1,23.0,47,29.75,10.0,West,18.4,24.2,N/A,,Overcast,270,2014-04-05 19:54:00
4:54 PM,39.9,23.0,51,29.78,10.0,West,18.4,26.5,N/A,,Overcast,280,2014-04-05 20:54:00
5:54 PM,37.0,23.0,57,29.83,10.0,WSW,15.0,-,N/A,,Overcast,240,2014-04-05 21:54:00
6:54 PM,36.0,24.1,62,29.86,10.0,West,13.8,-,N/A,,Overcast,280,2014-04-05 22:54:00
7:54 PM,36.0,24.1,62,29.88,10.0,WSW,11.5,-,N/A,,Overcast,250,2014-04-05 23:54:00
8:54 PM,36.0,21.9,57,29.92,10.0,West,11.5,-,N/A,,Overcast,260,2014-04-06 00:54:00
9:54 PM,37.0,21.9,54,29.94,10.0,West,13.8,24.2,N/A,,Overcast,270,2014-04-06 01:54:00
10:54 PM,36.0,23.0,59,29.96,10.0,West,12.7,-,N/A,,Overcast,280,2014-04-06 02:54:00
11:54 PM,36.0,23.0,59,29.98,10.0,WNW,10.4,-,N/A,,Overcast,300,2014-04-06 03:54:00